TimeCDT,TemperatureF,Dew PointF,Humidity,Sea Level PressureIn,VisibilityMPH,Wind Direction,Wind SpeedMPH,Gust SpeedMPH,PrecipitationIn,Events,Conditions,WindDirDegrees,DateUTC
12:55 AM,43.9,26.6,51,30.01,10.0,SSE,6.9,-,N/A,,Overcast,160,2012-10-11 05:55:00
1:55 AM,45.0,27.1,50,29.98,10.0,South,8.1,-,N/A,,Overcast,180,2012-10-11 06:55:00
2:55 AM,46.2,25.9,45,29.94,10.0,SSW,15.0,20.7,N/A,,Overcast,200,2012-10-11 07:55:00
3:55 AM,46.0,26.2,46,29.93,10.0,SSW,12.7,19.6,N/A,,Scattered Clouds,200,2012-10-11 08:55:00
4:55 AM,47.7,27.0,45,29.89,10.0,SSW,17.3,27.6,N/A,,Mostly Cloudy,200,2012-10-11 09:55:00
5:55 AM,48.6,28.4,46,29.93,10.0,WSW,12.7,18.4,N/A,,Scattered Clouds,240,2012-10-11 10:55:00
6:55 AM,49.3,29.5,46,29.92,10.0,SW,12.7,-,N/A,,Scattered Clouds,220,2012-10-11 11:55:00
7:55 AM,50.0,30.2,47,29.94,10.0,WSW,15.0,19.6,N/A,,Overcast,240,2012-10-11 12:55:00
8:55 AM,51.8,32.0,47,29.96,10.0,WSW,11.5,-,N/A,,Overcast,250,2012-10-11 13:55:00
9:55 AM,53.6,33.8,47,29.98,10.0,West,16.1,19.6,N/A,,Overcast,270,2012-10-11 14:55:00
10:44 AM,53.6,32.0,44,29.99,10.0,WNW,15.0,21.9,N/A,Rain,Light Rain,300,2012-10-11 15:44:00
10:55 AM,53.6,35.6,51,30.02,10.0,WNW,12.7,24.2,N/A,Rain,Light Rain,290,2012-10-11 15:55:00
11:00 AM,53.6,35.6,51,30.03,10.0,NNW,13.8,-,N/A,,Partly Cloudy,330,2012-10-11 16:00:00
11:12 AM,53.6,32.0,44,30.02,10.0,NNW,13.8,23.0,N/A,,Overcast,330,2012-10-11 16:12:00
11:55 AM,51.8,32.0,47,30.06,10.0,NW,10.4,18.4,N/A,,Mostly Cloudy,320,2012-10-11 16:55:00
12:55 PM,50.0,33.8,54,30.09,10.0,NNW,11.5,-,N/A,,Overcast,330,2012-10-11 17:55:00
1:55 PM,48.2,33.8,58,30.11,10.0,WNW,11.5,-,N/A,,Overcast,300,2012-10-11 18:55:00
2:55 PM,48.2,33.8,58,30.12,10.0,WNW,11.5,-,N/A,,Mostly Cloudy,300,2012-10-11 19:55:00
3:55 PM,50.4,28.6,43,30.13,10.0,WNW,11.5,23.0,N/A,,Scattered Clouds,300,2012-10-11 20:55:00
4:55 PM,50.0,23.0,35,30.14,10.0,WNW,9.2,-,N/A,,Mostly Cloudy,300,2012-10-11 21:55:00
5:55 PM,47.7,22.5,37,30.17,10.0,NW,9.2,-,N/A,,Mostly Cloudy,310,2012-10-11 22:55:00
6:55 PM,42.8,19.4,39,30.20,10.0,NW,9.2,-,N/A,,Mostly Cloudy,310,2012-10-11 23:55:00
7:55 PM,42.8,15.8,34,30.24,10.0,NNW,8.1,-,N/A,,Scattered Clouds,330,2012-10-12 00:55:00
8:55 PM,35.6,19.4,52,30.28,10.0,NNW,5.8,-,N/A,,Partly Cloudy,330,2012-10-12 01:55:00
9:55 PM,33.8,19.4,56,30.30,10.0,NW,5.8,-,N/A,,Clear,320,2012-10-12 02:55:00
10:55 PM,33.8,21.2,60,30.33,10.0,NNW,4.6,-,N/A,,Scattered Clouds,340,2012-10-12 03:55:00
11:55 PM,25.9,19.8,78,30.37,10.0,West,4.6,-,N/A,,Clear,270,2012-10-12 04:55:00